Погода в Холме

Россия / Ярославская область     58°17′13″N   39°31′00″E
темп.,
°C
ветер,
м/с
пор.,
м/с
влажн.,
%
обл.,
%
осадки,
мм/ч
давл.,
гПа
погр.,
м
19 апреля, пн
пн1900:00+4всв41080100 0.0 1028545
03:00+2всв41079100 0.0 1029399
06:00+1всв4108093 0.0 1029454
09:00+4в59565 0.0 1030819
12:00+8в58394 0.0 10291464
15:00+9в57385 0.0 10291768
18:00+8в47425 0.0 10281611
21:00+3в311570 0.0 1029425
20 апреля, вт
вт2000:00+2в411671 0.0 1030435
03:000в411765 0.0 1029358
06:00−1в4127227 0.0 1029400
09:00+5вюв5104667 0.0 1028828
12:00+9вюв6945100 0.0 10261505
15:00+10вюв6944100 0.0 10241680
18:00+9вюв51051100 0.0 10231330
21:00+6вюв51253100 0.0 1021920
21 апреля, ср
ср2100:00+4в51354100 0.0 1019676
03:00+3в51458100 0.0 1016709
06:00+2в71565100 0.2 1012947
09:00+1в61696100 3.4 1009905
12:00+1в61696100 1.8 1005846
15:00+3вюв71695100 5.4 10021263
18:00+3ююв71297100 0.5 1003984
21:00+2ю61197100 1.1 1006947
22 апреля, чт
чт2200:00+2ююз51197100 0.4 1009931
03:00+3ююз41197100 0.6 1010931
06:00+3ю4109591 0.0 1011514
09:00+6ю51086100 0.1 1012608
12:00+9ююз51077100 0.3 10131264
15:00+10ююз51074100 1.4 10131428
18:00+8ююз41187100 0.6 1015903
21:00+6ююз3109413 0.6 1016335
23 апреля, пт
пт2300:00+7ю2989100 0.0 1016218
03:00+4ю27960 0.0 1016130
06:00+4ююв38955 0.0 1016178
09:00+10ю498112 0.0 1016508
12:00+14ю57635 0.0 10161072
15:00+15ю586259 0.5 10141477
18:00+14ю497120 0.7 1014635
21:00+10ююв4138362 0.7 1013369